Tracking 19574 objects as of 16-Feb-2019
HD Live streaming from Space Station
objects crossing your sky now

COSMOS 332

Track COSMOS 332 now!
10-day predictions
COSMOS 332 is classified as:


NORAD ID: 4369
Int'l Code: 1970-028A
Perigee: 724.6 km
Apogee: 731.4 km
Inclination: 74.0 °
Period: 99.2 minutes
Semi major axis: 7098 km
RCS: 3.6339 m2 (large)
Launch date: April 11, 1970
Source: Commonwealth of Independent States (former USSR) (CIS)
Launch site: PLESETSK MISSILE AND SPACE COMPLEX (PKMTR)
aabbcc
Your satellite tracking list
Your tracking list is empty




NASA's NSSDC Master Catalog

Two Line Element Set (TLE):
1  4369U 70028A   19046.77366402 +.00000029 +00000-0 +14090-4 0  9993
2  4369 074.0355 270.2997 0004814 083.9954 276.1756 14.51467715579353
Source of the keplerian elements: AFSPC